Zurück zum Katalog

SL-14 DEB

AktivPO
NORAD 45356·DEBRIS·🇷🇺 Russia

Gestartet Aug 15, 1991 von Plesetsk Cosmodrome

Loading…

Nächste Überflüge (nächste 24 Stunden)

TLE

AktuellSource: Space-Track

Epoche: Sep 14, 2026, 10:49 UTC

1 45356U 91056CQ  26257.45081729  .00000308  00000-0  65660-3 0  9999
2 45356  82.6105  63.5126 0041809 100.0574 260.5275 13.27013999316279

Verfolge SL-14 DEB in Echtzeit mit AllMySat

Download on the App Store